Deering, AK

3:50 AM AKDT on April 19, 2018 (GMT -0800)
Deering (New)

Weather History for PADE - December, 2012

Change the Weather History Date:

Sunday, December 23, 2012

  Actual Average (PAOT) Record (PAOT)
Temperature  
Mean Temperature -16 °F -  
Max Temperature -7 °F 6 °F 34 °F (1983)
Min Temperature -26 °F -6 °F -39 °F (1957)
Degree Days  
Heating Degree Days 82    
Moisture  
Dew Point -26 °F    
Average Humidity 75    
Maximum Humidity 82    
Minimum Humidity 65    
Precipitation  
Precipitation 0.00 in - - ()
Sea Level Pressure  
Sea Level Pressure 30.06 in    
Wind  
Wind Speed 2 mph (SSE)    
Max Wind Speed 7 mph    
Max Gust Speed -    
Visibility 10 miles    
Events      
Averages and records for this station are not official NWS values.
T = Trace of Precipitation, MM = Missing Value Source: NWS Daily Summary

Daily Weather History Graph

Daily Weather History Graph

Search for Another Location

Airport or City:

Astronomy

Dec. 23, 2012 Rise Set
Actual Time 12:28 PM AKST 3:12 PM AKST
Civil Twilight 10:46 AM AKST 4:54 PM AKST
Nautical Twilight 9:29 AM AKST 6:12 PM AKST
Astronomical Twilight 8:23 AM AKST 7:17 PM AKST
Moon 1:31 PM AKST (12/23) 6:56 AM AKST (12/23)
Length of Visible Light 6h 07m
Length of Day
2h 44m
Waxing Gibbous, 82% of the Moon is Illuminated
Dec 23
Waxing Gibbous
Dec 28
Full
Jan 4
Last Quarter
Jan 11
New
Jan 18
First Quarter

Hourly Weather History & Observations

Time (AKST) Temp. Windchill Dew Point Humidity Pressure Visibility Wind Dir Wind Speed Gust Speed Precip Events Conditions
12:53 AM -7.1 °F -15.9 °F -16.1 °F 65% 30.21 in 10.0 mi NE 3.5 mph - N/A   Clear
1:53 AM -9.0 °F -23.8 °F -16.1 °F 71% 30.20 in 10.0 mi ENE 6.9 mph - N/A   Clear
3:53 AM -13.0 °F - -18.0 °F 78% 30.19 in 10.0 mi Calm Calm - N/A   Clear
4:53 AM -17.0 °F - -23.1 °F 74% 30.17 in 10.0 mi Calm Calm - N/A   Clear
5:53 AM -20.0 °F - -24.0 °F 82% 30.15 in 10.0 mi Calm Calm - N/A   Clear
6:53 AM -20.0 °F - -26.0 °F 74% 30.13 in 10.0 mi Calm Calm - N/A   Clear
7:53 AM -24.0 °F - -29.9 °F 74% 30.12 in 10.0 mi Calm Calm - N/A   Clear
8:53 AM -22.0 °F - -27.0 °F 77% 30.12 in 10.0 mi Calm Calm - N/A   Clear
9:53 AM -18.9 °F - -26.0 °F 70% 30.11 in 10.0 mi Calm Calm - N/A   Clear
10:53 AM -24.0 °F -40.0 °F -29.9 °F 74% 30.09 in 10.0 mi South 5.8 mph - N/A   Clear
11:53 AM -25.1 °F - -31.0 °F 74% 30.09 in 10.0 mi Calm Calm - N/A   Clear
12:53 PM -26.0 °F -37.5 °F -31.0 °F 77% 30.07 in 10.0 mi NW 3.5 mph - N/A   Clear
1:53 PM -24.0 °F -35.2 °F -27.9 °F 82% 30.07 in 10.0 mi South 3.5 mph - N/A   Clear
2:53 PM -25.1 °F - -29.0 °F 82% 30.03 in 10.0 mi Calm Calm - N/A   Clear
3:53 PM -24.0 °F -35.2 °F -29.0 °F 77% 30.03 in 10.0 mi ESE 3.5 mph - N/A   Clear
4:53 PM -25.1 °F -43.1 °F -31.0 °F 74% 30.01 in 10.0 mi South 6.9 mph - N/A   Clear
5:53 PM -20.9 °F - -27.9 °F 70% 29.99 in 10.0 mi Calm Calm - N/A   Partly Cloudy
6:53 PM -20.9 °F - -26.0 °F 77% 29.98 in 10.0 mi Calm Calm - N/A   Scattered Clouds
7:53 PM -23.1 °F - -27.9 °F 78% 29.96 in 10.0 mi Calm Calm - N/A   Clear
8:53 PM -24.0 °F -37.9 °F -29.0 °F 77% 29.94 in 10.0 mi North 4.6 mph - N/A   Clear
9:14 PM -23.8 °F -37.7 °F -29.2 °F 76% 29.92 in 10.0 mi SSW 4.6 mph - N/A   Clear
9:53 PM -20.9 °F - -27.0 °F 73% 29.93 in 10.0 mi Calm Calm - N/A   Clear
10:53 PM -17.0 °F -29.7 °F -24.0 °F 70% 29.92 in 10.0 mi SSW 4.6 mph - N/A   Clear
11:53 PM -16.1 °F -26.2 °F -20.9 °F 79% 29.91 in 10.0 mi East 3.5 mph - N/A   Clear